スパール彗星

171P/Spahr (2012)

English version
Home page
Updated on April 18, 2012

---------------------------------------------------------------------

・ プロフィール

・ 写真集

・ 軌道要素

Epoch 2012 Apr. 23.0 TT = JDT 2456040.5
T 2012 Apr. 30.52923 TT                                 MPC
q   1.7646479            (2000.0)            P               Q
n   0.14720832     Peri.  347.08492     +0.00499860     -0.93060568
a   3.5523397      Node   101.71973     +0.94749459     -0.11261405
e   0.5032435      Incl.   21.94902     +0.31973274     +0.34826878
P   6.70
From 316 observations 1998 Nov. 13-2012 Mar. 13, mean residual 0".7.
     Nongravitational parameters A1 = +0.11, A2 = -0.1803.

・ 光度変化

        m1 = 9.5 + 5 logΔ + 25 log r

---------------------------------------------------------------------

軌道要素はM.P.E.C. 2012-F11に掲載されたものです。
光度グラフはComet for Windowsで作成したものです。

---------------------------------------------------------------------

Copyright(C) Seiichi Yoshida (comet@aerith.net). All rights reserved.